Weather History for KDYT - November, 2011

Change the Weather History Date:

Monday, November 21, 2011

  Actual Average Record
Temperature  
Mean Temperature 21 °F -  
Max Temperature 28 °F 35 °F 67 °F (1990)
Min Temperature 14 °F 20 °F -2 °F (1978)
Degree Days  
Heating Degree Days 44    
Moisture  
Dew Point 18 °F    
Average Humidity 84    
Maximum Humidity 93    
Minimum Humidity 79    
Precipitation  
Precipitation 0.00 in - - ()
Sea Level Pressure  
Sea Level Pressure 30.30 in    
Wind  
Wind Speed 7 mph (SW)    
Max Wind Speed 12 mph    
Max Gust Speed -    
Visibility 9 miles    
Events      
Averages and records for this station are not official NWS values.
T = Trace of Precipitation, MM = Missing Value Source: NWS Daily Summary

Daily Weather History Graph

Daily Weather History Graph

Search for Another Location

Airport or City:

Trip Planner

Search our weather history database for the weather conditions in past years. The results will help you decide how hot, cold, wet, or windy it might be!

Date:

Astronomy

Nov. 21, 2011 Rise Set
Actual Time 7:18 AM CST 4:28 PM CST
Civil Twilight 6:45 AM CST 5:02 PM CST
Nautical Twilight 6:08 AM CST 5:39 PM CST
Astronomical Twilight 5:32 AM CST 6:15 PM CST
Moon 2:44 AM CST (11/21) 2:02 PM CST (11/21)
Length of Visible Light 10h 16m
Length of Day
9h 09m
Waning Crescent, 17% of the Moon is Illuminated
Nov 21
Waning Crescent
Nov 25
New
Dec 2
First Quarter
Dec 10
Full
Dec 17
Last Quarter

Hourly Weather History & Observations

Time (CST) Temp. Windchill Dew Point Humidity Pressure Visibility Wind Dir Wind Speed Gust Speed Precip Events Conditions
12:14 AM 17.6 °F 8.2 °F 12.2 °F 79% 30.33 in 10.0 mi SSW 6.9 mph - N/A   Overcast
12:33 AM 17.6 °F 10.7 °F 12.2 °F 79% 30.32 in 10.0 mi SW 4.6 mph - N/A   Scattered Clouds
12:53 AM 17.6 °F 10.7 °F 12.2 °F 79% 30.32 in 10.0 mi SSW 4.6 mph - N/A   Scattered Clouds
1:14 AM 15.8 °F 8.6 °F 12.2 °F 86% 30.32 in 10.0 mi SSW 4.6 mph - N/A   Scattered Clouds
1:33 AM 15.8 °F 7.2 °F 12.2 °F 86% 30.32 in 10.0 mi SSW 5.8 mph - N/A   Mostly Cloudy
1:53 AM 15.8 °F 8.6 °F 12.2 °F 86% 30.33 in 10.0 mi SSW 4.6 mph - N/A   Overcast
2:33 AM 14.0 °F 8.2 °F 10.4 °F 86% 30.32 in 10.0 mi SW 3.5 mph - N/A   Clear
2:54 AM 15.8 °F 10.2 °F 12.2 °F 86% 30.31 in 10.0 mi SSW 3.5 mph - N/A   Mostly Cloudy
3:13 AM 15.8 °F 7.2 °F 12.2 °F 86% 30.32 in 10.0 mi SW 5.8 mph - N/A   Overcast
3:33 AM 15.8 °F 6.1 °F 12.2 °F 86% 30.31 in 10.0 mi SW 6.9 mph - N/A   Overcast
3:54 AM 17.6 °F 7.3 °F 14.0 °F 86% 30.31 in 10.0 mi SW 8.1 mph - N/A   Overcast
4:13 AM 17.6 °F 8.2 °F 15.8 °F 93% 30.31 in 10.0 mi SW 6.9 mph - N/A   Overcast
4:33 AM 17.6 °F 5.7 °F 15.8 °F 93% 30.31 in 10.0 mi SW 10.4 mph - N/A   Overcast
4:54 AM 19.4 °F 8.6 °F 15.8 °F 86% 30.31 in 10.0 mi SW 9.2 mph - N/A   Overcast
5:13 AM 19.4 °F 12.8 °F 15.8 °F 86% 30.30 in 10.0 mi South 4.6 mph - N/A   Overcast
5:33 AM 19.4 °F 10.4 °F 15.8 °F 86% 30.31 in 10.0 mi SSW 6.9 mph - N/A   Overcast
5:54 AM 19.4 °F 10.4 °F 15.8 °F 86% 30.30 in 10.0 mi SSW 6.9 mph - N/A   Overcast
6:13 AM 19.4 °F 9.5 °F 15.8 °F 86% 30.31 in 10.0 mi SSW 8.1 mph - N/A   Overcast
6:33 AM 19.4 °F 11.5 °F 15.8 °F 86% 30.31 in 10.0 mi SW 5.8 mph - N/A   Overcast
6:54 AM 19.4 °F 11.5 °F 15.8 °F 86% 30.31 in 10.0 mi SW 5.8 mph - N/A   Overcast
7:13 AM 19.4 °F 11.5 °F 15.8 °F 86% 30.31 in 10.0 mi SSW 5.8 mph - N/A   Overcast
7:33 AM 19.4 °F 11.5 °F 17.6 °F 93% 30.31 in 10.0 mi SW 5.8 mph - N/A   Overcast
8:13 AM 21.2 °F 12.6 °F 17.6 °F 86% 30.31 in 10.0 mi SW 6.9 mph - N/A   Overcast
8:33 AM 21.2 °F 11.7 °F 17.6 °F 86% 30.31 in 10.0 mi SW 8.1 mph - N/A   Overcast
8:54 AM 21.2 °F 12.6 °F 17.6 °F 86% 30.31 in 10.0 mi SW 6.9 mph - N/A   Overcast
9:13 AM 21.2 °F 10.9 °F 17.6 °F 86% 30.31 in 10.0 mi SW 9.2 mph - N/A   Overcast
9:33 AM 21.2 °F 10.9 °F 17.6 °F 86% 30.31 in 10.0 mi SW 9.2 mph - N/A   Overcast
9:54 AM 21.2 °F 9.5 °F 17.6 °F 86% 30.31 in 10.0 mi SSW 11.5 mph - N/A   Overcast
10:13 AM 21.2 °F 10.1 °F 17.6 °F 86% 30.31 in 10.0 mi SSW 10.4 mph - N/A   Overcast
10:33 AM 23.0 °F 11.7 °F 19.4 °F 86% 30.31 in 10.0 mi SW 11.5 mph - N/A   Overcast
10:54 AM 23.0 °F 12.4 °F 19.4 °F 86% 30.30 in 10.0 mi SSW 10.4 mph - N/A   Overcast
11:13 AM 23.0 °F 13.1 °F 19.4 °F 86% 30.30 in 10.0 mi SW 9.2 mph - N/A   Overcast
11:33 AM 24.8 °F 14.6 °F 19.4 °F 80% 30.29 in 10.0 mi SW 10.4 mph - N/A   Overcast
11:54 AM 24.8 °F 14.0 °F 19.4 °F 80% 30.29 in 10.0 mi SW 11.5 mph - N/A   Overcast
12:13 PM 24.8 °F 15.3 °F 19.4 °F 80% 30.29 in 10.0 mi WSW 9.2 mph - N/A   Overcast
12:33 PM 24.8 °F 16.9 °F 19.4 °F 80% 30.28 in 7.0 mi WSW 6.9 mph - N/A   Overcast
12:53 PM 24.8 °F 17.9 °F 21.2 °F 86% 30.27 in 7.0 mi WSW 5.8 mph - N/A   Overcast
1:13 PM 24.8 °F 15.3 °F 21.2 °F 86% 30.27 in 7.0 mi WSW 9.2 mph - N/A   Overcast
1:34 PM 24.8 °F 17.9 °F 21.2 °F 86% 30.27 in 7.0 mi WSW 5.8 mph - N/A   Overcast
1:53 PM 26.6 °F 20.0 °F 21.2 °F 80% 30.27 in 7.0 mi West 5.8 mph - N/A   Overcast
2:14 PM 26.6 °F 19.1 °F 21.2 °F 80% 30.27 in 7.0 mi WSW 6.9 mph - N/A   Overcast
2:33 PM 26.6 °F 19.1 °F 21.2 °F 80% 30.26 in 7.0 mi SW 6.9 mph - N/A   Overcast
2:53 PM 26.6 °F 18.2 °F 21.2 °F 80% 30.26 in 7.0 mi SW 8.1 mph - N/A   Overcast
3:14 PM 26.6 °F 18.2 °F 21.2 °F 80% 30.26 in 7.0 mi WSW 8.1 mph - N/A   Overcast
3:33 PM 26.6 °F 19.1 °F 21.2 °F 80% 30.26 in 7.0 mi WSW 6.9 mph - N/A   Overcast
3:53 PM 26.6 °F 21.2 °F 23.0 °F 86% 30.26 in 10.0 mi West 4.6 mph - N/A   Overcast
4:13 PM 26.6 °F 20.0 °F 23.0 °F 86% 30.26 in 10.0 mi WSW 5.8 mph - N/A   Overcast
5:13 PM 26.6 °F 20.0 °F 23.0 °F 86% 30.26 in 10.0 mi WSW 5.8 mph - N/A   Overcast
5:33 PM 28.4 °F 23.3 °F 23.0 °F 80% 30.26 in 10.0 mi West 4.6 mph - N/A   Overcast
5:53 PM 28.4 °F 24.6 °F 23.0 °F 80% 30.26 in 10.0 mi West 3.5 mph - N/A   Overcast
6:14 PM 28.4 °F 23.3 °F 23.0 °F 80% 30.25 in 10.0 mi WSW 4.6 mph - N/A   Overcast
6:33 PM 26.6 °F 22.6 °F 23.0 °F 86% 30.25 in 10.0 mi WSW 3.5 mph - N/A   Mostly Cloudy
6:54 PM 26.6 °F 22.6 °F 23.0 °F 86% 30.25 in 10.0 mi WSW 3.5 mph - N/A   Overcast
7:13 PM 26.6 °F 22.6 °F 23.0 °F 86% 30.26 in 10.0 mi West 3.5 mph - N/A   Overcast
7:33 PM 28.4 °F 23.3 °F 23.0 °F 80% 30.26 in 10.0 mi WSW 4.6 mph - N/A   Overcast
7:54 PM 28.4 °F - 23.0 °F 80% 30.27 in 10.0 mi Calm Calm - N/A   Overcast
8:13 PM 28.4 °F - 24.8 °F 86% 30.27 in 10.0 mi Calm Calm - N/A   Overcast
8:33 PM 28.4 °F - 24.8 °F 86% 30.28 in 10.0 mi Calm Calm - N/A   Overcast
8:54 PM 28.4 °F 24.6 °F 24.8 °F 86% 30.28 in 10.0 mi South 3.5 mph - N/A   Overcast
9:13 PM 28.4 °F - 24.8 °F 86% 30.27 in 10.0 mi Calm Calm - N/A   Overcast
9:33 PM 28.4 °F - 24.8 °F 86% 30.27 in 10.0 mi Calm Calm - N/A   Overcast
9:54 PM 28.4 °F - 24.8 °F 86% 30.26 in 10.0 mi Calm Calm - N/A   Overcast
10:13 PM 28.4 °F - 24.8 °F 86% 30.25 in 10.0 mi Calm Calm - N/A   Overcast
10:33 PM 28.4 °F - 24.8 °F 86% 30.25 in 10.0 mi Calm Calm - N/A   Overcast
10:53 PM 28.4 °F - 24.8 °F 86% 30.25 in 10.0 mi Calm Calm - N/A   Overcast
11:33 PM 28.4 °F 23.3 °F 24.8 °F 86% 30.26 in 10.0 mi South 4.6 mph - N/A   Overcast
11:53 PM 28.4 °F - 24.8 °F 86% 30.26 in 10.0 mi Calm Calm - N/A   Overcast